This demonstration page uses our WeatherBlox Daily Observations layout. Learn more.

Left ArrowRight Arrow

31.84235, -102.49876

Hourly Observations for May 1, 2017

Temp ( °F °C ) Dew Point ( °F °C ) Humidity (%) Winds ( mph kmh ) Pressure ( in mb ) Visibility ( mi km ) Precip ( " mm )
12:53 am 00:53 Clear 55 12.8 29 -1.7 37 37 S 6 9 29.87 1011 10 16 0.00 0.00
1:53 am 01:53 Clear 55 12.8 27 -2.8 34 34 SSW 7 11 29.87 1011 10 16 0.00 0.00
2:53 am 02:53 Clear 55 12.8 22 -5.6 28 28 S 7 11 29.86 1011 10 16 0.00 0.00
3:53 am 03:53 Clear 55 12.8 20 -6.7 25 25 SSW 9 15 29.84 1010 10 16 0.00 0.00
4:53 am 04:53 Clear 58 14.4 18 -7.8 21 21 SSW 13 20 29.82 1010 10 16 0.00 0.00
5:53 am 05:53 Clear 58 14.4 19 -7.2 22 22 SSW 13 20 29.83 1010 10 16 0.00 0.00
6:53 am 06:53 Clear 54 12.2 22 -5.6 29 29 SSW 9 15 29.85 1011 10 16 0.00 0.00
7:53 am 07:53 Sunny 56 13.3 23 -5 28 28 SW 5 7 29.87 1012 10 16 0.00 0.00
8:53 am 08:53 Sunny 62 16.7 21 -6.1 21 21 W 7 11 29.89 1012 10 16 0.00 0.00
9:53 am 09:53 Sunny 71 21.7 21 -6.1 15 15 W 7 11 29.88 1012 10 16 0.00 0.00
10:53 am 10:53 Sunny 76 24.4 17 -8.3 11 11 NW 17 28 29.88 1012 10 16 0.00 0.00
11:53 am 11:53 Sunny 79 26.1 19 -7.2 10 10 WNW 17 28 29.89 1012 10 16 0.00 0.00
12:53 pm 12:53 Sunny 80 26.7 21 -6.1 11 11 WNW 10 17 29.88 1012 10 16 0.00 0.00
1:53 pm 13:53 Sunny 83 28.3 20 -6.7 10 10 W 16 26 29.86 1011 10 16 0.00 0.00
2:53 pm 14:53 Sunny 84 28.9 18 -7.8 8 8 WNW 16 26 29.84 1010 10 16 0.00 0.00
3:53 pm 15:53 Sunny 86 30 17 -8.3 8 8 W 22 35 29.82 1010 10 16 0.00 0.00
4:53 pm 16:53 Sunny 86 30 17 -8.3 8 8 NW 21 33 29.80 1009 10 16 0.00 0.00
5:53 pm 17:53 Sunny 86 30 19 -7.2 8 8 NW 16 26 29.79 1009 10 16 0.00 0.00
6:53 pm 18:53 Sunny 84 28.9 20 -6.7 9 9 W 13 20 29.80 1009 10 16 0.00 0.00
7:53 pm 19:53 Sunny 81 27.2 22 -5.6 11 11 NW 5 7 29.79 1009 10 16 0.00 0.00
8:53 pm 20:53 Clear 73 22.8 25 -3.9 17 17 Calm 29.80 1009 10 16 0.00 0.00
9:53 pm 21:53 Clear 72 22.2 25 -3.9 17 17 ENE 3 6 29.80 1009 10 16 0.00 0.00
10:53 pm 22:53 Clear 68 20 26 -3.3 21 21 E 6 9 29.82 1010 10 16 0.00 0.00
11:53 pm 23:53 Clear 65 18.3 28 -2.2 25 25 E 12 19 29.83 1010 10 16 0.00 0.00

Powered by AerisWeather